Location: Sobotiste
(48.7170°N, 17.4000°E)
Time: 12:03:43
(UTC+02:00)

Tiangong 2 - Visible Passes

Search period start: 21 August 2017 00:00
Search period end: 31 August 2017 00:00
Orbit: 390 x 395 km, 42.8° (Epoch: 20 August)

Date Brightness Start Highest point End Pass type
(mag) Time Alt. Az. Time Alt. Az. Time Alt. Az.
21 Aug 3.6 04:20:49 11° S 04:21:45 12° SSE 04:23:02 10° SE visible
22 Aug 2.8 04:58:46 11° SW 05:01:07 22° SSE 05:03:41 10° ESE visible
23 Aug 3.1 04:04:19 17° SSE 04:04:19 17° SSE 04:06:28 10° ESE visible
24 Aug 2.5 04:42:14 18° SW 04:43:42 26° S 04:46:28 10° ESE visible
25 Aug 3.1 03:47:48 19° SE 03:47:48 19° SE 03:49:23 10° ESE visible
25 Aug 2.4 05:20:25 10° WSW 05:23:12 27° S 05:26:01 10° SE visible
26 Aug 2.2 04:25:46 27° SSW 04:26:16 28° S 04:29:05 10° ESE visible
27 Aug 3.7 03:31:25 14° ESE 03:31:25 14° ESE 03:32:05 10° ESE visible
27 Aug 2.5 05:03:48 14° WSW 05:05:45 24° S 05:08:24 10° SE visible
28 Aug 2.6 04:09:32 24° SSE 04:09:32 24° SSE 04:11:34 10° SE visible
29 Aug 2.7 04:47:47 18° SSW 04:48:12 18° SSW 04:50:31 10° SSE visible
30 Aug 3.9 03:53:48 10° SE 03:53:48 10° SE 03:53:51 10° SE visible
